{"data":{"norad_id":48860,"intl_designator":"2021-055A","name":"YAOGAN-30 10A","alt_names":[],"object_type":"PAYLOAD","status":"ACTIVE","operator":null,"country":"PRC","launch_date":"2021-06-18","launch_site_code":"XICLF","launch_vehicle":null,"mission":null,"orbit_class":"UNKNOWN","rcs_meters":null,"size_class":null,"mass_kg":null,"dimensions":null,"purposes":[],"wikipedia_slug":null,"has_3d_model":false,"image_url":null,"decayed_at":null,"tle_current":{"epoch":"2026-05-24T21:09:33.836832Z","epoch_age_seconds":99426,"freshness":"FRESH","line1":"1 48860U 21055A   26144.88164163  .00002547  00000+0  18981-3 0  9990","line2":"2 48860  34.9959 294.2706 0004154 238.1729 121.8575 15.02552587269672","mean_motion":15.02552587,"eccentricity":0.0004154,"inclination_deg":34.9959,"raan_deg":294.2706,"arg_perigee_deg":238.1729,"mean_anomaly_deg":121.8575,"bstar":0.00018981,"rev_number":26967,"period_min":95.836911962936,"perigee_km":556.14678047511,"apogee_km":561.91017755507,"semimajor_km":6937.1654790151,"source":"CELESTRAK","updated_at":"2026-05-25T13:37:56.973380Z"}}}